QPF
0.01 0.01 0.01 0.01 0.01 0.01 0.01 0.02 0.03 0.04 0.04 0.05 0.05 0.07 0.10 0.07 0.05 0.03 0.03 0.03 0.03 0.03 0.03 0.02 0.02 0.02 0.02 0.03 0.04 0.04 0.04 0.03 0.04 0.04 0.03 0.03 0.03 0.05 0.05 0.04 0.03 0.02 0.02
0.01 0.01 0.01 0.01 0.01 0.01 0.01 0.01 0.02 0.03 0.04 0.04 0.04 0.04 0.05 0.06 0.05 0.04 0.02 0.02 0.02 0.03 0.04 0.04 0.03 0.03 0.02 0.02 0.02 0.03 0.04 0.03 0.03 0.05 0.04 0.03 0.03 0.03 0.03 0.03 0.02 0.02 0.02
0.01 0.01 0.01 0.01 0.00 0.01 0.01 0.01 0.02 0.02 0.03 0.04 0.04 0.04 0.03 0.03 0.03 0.03 0.02 0.01 0.01 0.01 0.02 0.04 0.05 0.05 0.04 0.04 0.03 0.03 0.03 0.03 0.03 0.05 0.05 0.04 0.03 0.02 0.02 0.02 0.02 0.02 0.02
0.01 0.01 0.01 0.01 0.00 0.00 0.01 0.02 0.02 0.02 0.02 0.03 0.04 0.04 0.03 0.03 0.03 0.03 0.02 0.02 0.01 0.00 0.01 0.02 0.03 0.03 0.04 0.04 0.05 0.05 0.04 0.04 0.03 0.03 0.04 0.05 0.04 0.03 0.03 0.02 0.02 0.02 0.02
0.01 0.02 0.01 0.00 0.00 0.00 0.00 0.01 0.01 0.01 0.02 0.02 0.03 0.03 0.03 0.02 0.02 0.03 0.03 0.02 0.01 0.00 0.00 0.01 0.02 0.02 0.03 0.03 0.03 0.04 0.04 0.04 0.04 0.04 0.03 0.04 0.05 0.04 0.04 0.03 0.02 0.02 0.02
0.01 0.02 0.02 0.01 0.00 0.00 0.00 0.00 0.00 0.01 0.01 0.01 0.02 0.03 0.02 0.02 0.01 0.02 0.02 0.02 0.02 0.01 0.01 0.01 0.01 0.01 0.02 0.03 0.03 0.02 0.03 0.03 0.03 0.04 0.05 0.05 0.04 0.04 0.05 0.04 0.03 0.03 0.03
0.00 0.01 0.02 0.02 0.01 0.00 0.00 0.00 0.00 0.01 0.01 0.01 0.01 0.02 0.02 0.02 0.02 0.01 0.02 0.02 0.02 0.02 0.02 0.01 0.01 0.01 0.01 0.02 0.02 0.02 0.02 0.03 0.03 0.03 0.03 0.05 0.04 0.04 0.05 0.05 0.05 0.05 0.05
0.00 0.01 0.02 0.02 0.01 0.00 0.00 0.00 0.01 0.01 0.01 0.01 0.01 0.01 0.02 0.02 0.02 0.02 0.01 0.02 0.02 0.03 0.03 0.03 0.02 0.01 0.01 0.01 0.02 0.02 0.02 0.02 0.02 0.02 0.02 0.04 0.05 0.05 0.05 0.06 0.07 0.07 0.06
0.00 0.01 0.02 0.02 0.01 0.01 0.00 0.00 0.00 0.01 0.01 0.01 0.01 0.01 0.01 0.01 0.01 0.01 0.01 0.01 0.01 0.01 0.02 0.02 0.03 0.02 0.02 0.02 0.02 0.02 0.02 0.02 0.02 0.02 0.02 0.02 0.04 0.05 0.05 0.06 0.07 0.07 0.07
0.00 0.01 0.02 0.03 0.01 0.01 0.00 0.00 0.00 0.01 0.01 0.01 0.01 0.01 0.01 0.01 0.01 0.01 0.01 0.01 0.00 0.01 0.01 0.01 0.02 0.02 0.02 0.03 0.03 0.02 0.02 0.02 0.02 0.02 0.02 0.02 0.03 0.04 0.05 0.06 0.07 0.07 0.06
0.01 0.01 0.01 0.03 0.02 0.01 0.01 0.00 0.01 0.01 0.01 0.01 0.01 0.01 0.00 0.00 0.00 0.00 0.01 0.01 0.01 0.01 0.01 0.01 0.01 0.01 0.02 0.02 0.02 0.02 0.02 0.02 0.02 0.02 0.02 0.02 0.02 0.03 0.04 0.05 0.06 0.07 0.07
0.00 0.01 0.01 0.02 0.02 0.01 0.01 0.01 0.01 0.01 0.01 0.01 0.01 0.00 0.00 0.00 0.00 0.00 0.00 0.00 0.01 0.01 0.01 0.01 0.01 0.01 0.01 0.02 0.02 0.03 0.03 0.03 0.03 0.02 0.02 0.02 0.02 0.02 0.03 0.05 0.05 0.05 0.05
0.00 0.01 0.02 0.02 0.02 0.02 0.01 0.01 0.01 0.01 0.01 0.01 0.01 0.00 0.00 0.00 0.00 0.00 0.00 0.01 0.01 0.01 0.01 0.01 0.01 0.01 0.01 0.01 0.01 0.02 0.03 0.03 0.03 0.03 0.03 0.03 0.03 0.03 0.03 0.04 0.05 0.05 0.05
0.00 0.01 0.03 0.03 0.02 0.02 0.02 0.01 0.01 0.01 0.01 0.01 0.01 0.00 0.00 0.00 0.00 0.00 0.01 0.01 0.01 0.01 0.01 0.01 0.01 0.01 0.01 0.01 0.01 0.02 0.02 0.02 0.03 0.04 0.04 0.04 0.04 0.03 0.03 0.04 0.05 0.05 0.04
0.00 0.00 0.03 0.05 0.02 0.01 0.01 0.01 0.01 0.01 0.01 0.01 0.01 0.01 0.00 0.00 0.00 0.00 0.01 0.01 0.01 0.01 0.01 0.02 0.02 0.02 0.02 0.02 0.02 0.02 0.02 0.02 0.02 0.03 0.03 0.03 0.04 0.04 0.04 0.04 0.05 0.05 0.04
0.00 0.00 0.02 0.09 0.05 0.01 0.01 0.01 0.01 0.01 0.01 0.01 0.01 0.01 0.00 0.00 0.00 0.01 0.01 0.01 0.01 0.01 0.02 0.03 0.03 0.03 0.03 0.03 0.04 0.03 0.03 0.03 0.03 0.02 0.02 0.02 0.03 0.03 0.04 0.05 0.06 0.06 0.05
0.00 0.01 0.01 0.07 0.12 0.05 0.02 0.01 0.01 0.01 0.01 0.01 0.01 0.01 0.01 0.01 0.01 0.01 0.01 0.01 0.01 0.02 0.02 0.03 0.04 0.04 0.04 0.05 0.04 0.05 0.05 0.05 0.04 0.03 0.03 0.02 0.02 0.03 0.03 0.04 0.05 0.08 0.07
0.01 0.01 0.02 0.04 0.11 0.09 0.04 0.02 0.01 0.01 0.01 0.01 0.01 0.01 0.01 0.01 0.01 0.01 0.01 0.01 0.01 0.02 0.03 0.04 0.04 0.05 0.05 0.05 0.05 0.05 0.05 0.05 0.05 0.04 0.04 0.03 0.03 0.04 0.04 0.04 0.05 0.07 0.08
0.01 0.02 0.03 0.03 0.05 0.08 0.06 0.04 0.03 0.02 0.01 0.01 0.01 0.01 0.01 0.01 0.01 0.01 0.02 0.02 0.02 0.02 0.02 0.03 0.04 0.05 0.06 0.06 0.05 0.06 0.05 0.05 0.04 0.04 0.04 0.05 0.04 0.05 0.05 0.05 0.05 0.06 0.07
0.02 0.01 0.02 0.02 0.02 0.05 0.07 0.05 0.03 0.03 0.02 0.01 0.01 0.01 0.01 0.01 0.01 0.01 0.02 0.02 0.02 0.02 0.02 0.02 0.03 0.04 0.06 0.08 0.07 0.07 0.06 0.06 0.05 0.05 0.05 0.06 0.06 0.07 0.07 0.06 0.05 0.05 0.05
0.01 0.01 0.01 0.01 0.02 0.03 0.05 0.05 0.04 0.04 0.05 0.03 0.01 0.01 0.01 0.01 0.01 0.01 0.01 0.02 0.02 0.02 0.02 0.02 0.03 0.04 0.06 0.08 0.09 0.09 0.09 0.08 0.07 0.07 0.07 0.07 0.07 0.08 0.09 0.07 0.06 0.05 0.04
0.01 0.01 0.01 0.01 0.01 0.02 0.03 0.04 0.04 0.04 0.05 0.05 0.02 0.01 0.01 0.01 0.01 0.01 0.01 0.01 0.02 0.02 0.02 0.02 0.03 0.03 0.05 0.08 0.09 0.08 0.08 0.08 0.09 0.08 0.09 0.09 0.08 0.08 0.09 0.08 0.08 0.08 0.07
0.01 0.01 0.01 0.01 0.01 0.01 0.02 0.02 0.03 0.04 0.04 0.06 0.06 0.03 0.01 0.01 0.01 0.01 0.01 0.01 0.02 0.02 0.03 0.03 0.04 0.04 0.04 0.06 0.07 0.08 0.08 0.08 0.08 0.09 0.10 0.10 0.08 0.08 0.09 0.09 0.09 0.09 0.08
0.00 0.01 0.01 0.01 0.01 0.02 0.01 0.01 0.02 0.03 0.04 0.05 0.06 0.07 0.04 0.02 0.02 0.01 0.01 0.01 0.02 0.03 0.03 0.03 0.04 0.05 0.05 0.05 0.06 0.07 0.07 0.08 0.08 0.08 0.09 0.09 0.09 0.08 0.09 0.10 0.11 0.11 0.10
0.00 0.00 0.01 0.01 0.02 0.02 0.02 0.01 0.01 0.02 0.02 0.03 0.05 0.06 0.07 0.06 0.04 0.02 0.01 0.02 0.02 0.04 0.05 0.06 0.06 0.06 0.07 0.08 0.08 0.08 0.08 0.08 0.08 0.07 0.08 0.08 0.09 0.10 0.11 0.11 0.11 0.11 0.11
0.01 0.01 0.01 0.01 0.02 0.02 0.03 0.02 0.01 0.01 0.01 0.02 0.02 0.04 0.06 0.06 0.06 0.05 0.04 0.03 0.03 0.04 0.05 0.06 0.06 0.06 0.07 0.07 0.07 0.08 0.08 0.07 0.08 0.07 0.07 0.07 0.07 0.08 0.09 0.10 0.10 0.10 0.09
MSLP
1017.05 1017.17 1017.20 1017.16 1017.10 1017.07 1017.10 1017.24 1017.52 1017.92 1018.43 1019.00 1019.60 1020.19 1020.74 1021.22 1021.63 1021.95 1022.21 1022.40 1022.53 1022.63 1022.69 1022.72 1022.73 1022.71 1022.66 1022.58 1022.46 1022.28 1022.06 1021.80 1021.50 1021.20 1020.91 1020.65 1020.46 1020.33 1020.29 1020.32 1020.40 1020.51 1020.63
1017.76 1017.93 1017.97 1017.90 1017.77 1017.63 1017.55 1017.57 1017.75 1018.08 1018.55 1019.12 1019.76 1020.41 1021.03 1021.60 1022.07 1022.46 1022.76 1022.98 1023.14 1023.25 1023.33 1023.37 1023.40 1023.40 1023.36 1023.29 1023.18 1023.01 1022.79 1022.52 1022.21 1021.89 1021.57 1021.28 1021.04 1020.87 1020.77 1020.74 1020.77 1020.84 1020.93
1018.47 1018.74 1018.85 1018.82 1018.68 1018.49 1018.33 1018.27 1018.34 1018.59 1019.00 1019.54 1020.17 1020.84 1021.50 1022.11 1022.63 1023.06 1023.40 1023.65 1023.83 1023.95 1024.03 1024.08 1024.11 1024.11 1024.09 1024.02 1023.92 1023.76 1023.55 1023.29 1023.00 1022.68 1022.36 1022.07 1021.81 1021.60 1021.46 1021.38 1021.35 1021.35 1021.38
1019.07 1019.50 1019.75 1019.82 1019.75 1019.58 1019.40 1019.28 1019.29 1019.46 1019.79 1020.27 1020.86 1021.50 1022.15 1022.77 1023.31 1023.75 1024.11 1024.37 1024.56 1024.69 1024.77 1024.82 1024.84 1024.84 1024.80 1024.74 1024.64 1024.49 1024.31 1024.08 1023.82 1023.54 1023.26 1022.99 1022.74 1022.52 1022.35 1022.21 1022.12 1022.05 1022.01
1019.51 1020.13 1020.58 1020.82 1020.87 1020.80 1020.66 1020.54 1020.51 1020.61 1020.86 1021.26 1021.77 1022.35 1022.95 1023.53 1024.05 1024.50 1024.85 1025.11 1025.30 1025.43 1025.50 1025.54 1025.54 1025.52 1025.48 1025.40 1025.30 1025.17 1025.02 1024.84 1024.64 1024.42 1024.19 1023.97 1023.75 1023.54 1023.35 1023.18 1023.02 1022.88 1022.75
1019.77 1020.60 1021.27 1021.72 1021.96 1022.03 1021.99 1021.91 1021.88 1021.93 1022.12 1022.42 1022.84 1023.32 1023.85 1024.36 1024.83 1025.24 1025.57 1025.82 1026.00 1026.11 1026.17 1026.19 1026.18 1026.13 1026.06 1025.98 1025.87 1025.76 1025.63 1025.50 1025.36 1025.21 1025.06 1024.90 1024.73 1024.54 1024.35 1024.16 1023.95 1023.74 1023.52
1019.87 1020.91 1021.79 1022.47 1022.91 1023.16 1023.25 1023.26 1023.26 1023.30 1023.42 1023.65 1023.96 1024.34 1024.76 1025.18 1025.58 1025.93 1026.22 1026.45 1026.61 1026.71 1026.75 1026.75 1026.71 1026.64 1026.54 1026.43 1026.32 1026.21 1026.11 1026.01 1025.93 1025.84 1025.76 1025.66 1025.54 1025.39 1025.21 1025.00 1024.76 1024.50 1024.21
1019.89 1021.09 1022.16 1023.03 1023.68 1024.10 1024.35 1024.47 1024.52 1024.57 1024.67 1024.82 1025.04 1025.31 1025.62 1025.95 1026.26 1026.54 1026.79 1026.98 1027.11 1027.19 1027.22 1027.20 1027.13 1027.03 1026.91 1026.77 1026.64 1026.52 1026.42 1026.35 1026.29 1026.25 1026.21 1026.16 1026.08 1025.97 1025.81 1025.61 1025.36 1025.07 1024.75
1019.90 1021.20 1022.41 1023.44 1024.25 1024.83 1025.22 1025.45 1025.58 1025.66 1025.74 1025.85 1025.99 1026.18 1026.39 1026.62 1026.84 1027.06 1027.25 1027.40 1027.51 1027.57 1027.58 1027.54 1027.45 1027.33 1027.17 1027.01 1026.85 1026.70 1026.59 1026.51 1026.46 1026.42 1026.40 1026.37 1026.32 1026.23 1026.10 1025.91 1025.67 1025.39 1025.07
1020.00 1021.34 1022.60 1023.72 1024.63 1025.33 1025.84 1026.17 1026.38 1026.51 1026.60 1026.69 1026.79 1026.90 1027.03 1027.17 1027.32 1027.47 1027.61 1027.72 1027.81 1027.85 1027.85 1027.80 1027.70 1027.55 1027.37 1027.17 1026.98 1026.79 1026.64 1026.53 1026.45 1026.40 1026.36 1026.33 1026.28 1026.20 1026.09 1025.92 1025.72 1025.47 1025.19
1020.26 1021.56 1022.82 1023.94 1024.90 1025.66 1026.24 1026.65 1026.93 1027.11 1027.23 1027.32 1027.39 1027.46 1027.54 1027.62 1027.71 1027.80 1027.89 1027.97 1028.03 1028.06 1028.05 1027.99 1027.88 1027.72 1027.52 1027.30 1027.07 1026.84 1026.65 1026.48 1026.35 1026.25 1026.18 1026.11 1026.04 1025.96 1025.85 1025.71 1025.55 1025.35 1025.13
1020.72 1021.94 1023.11 1024.18 1025.11 1025.88 1026.48 1026.94 1027.27 1027.50 1027.66 1027.77 1027.85 1027.90 1027.94 1027.98 1028.02 1028.07 1028.12 1028.17 1028.21 1028.22 1028.21 1028.14 1028.03 1027.86 1027.65 1027.41 1027.15 1026.89 1026.64 1026.42 1026.23 1026.07 1025.93 1025.82 1025.71 1025.61 1025.51 1025.39 1025.26 1025.12 1024.96
1021.41 1022.49 1023.53 1024.49 1025.34 1026.06 1026.65 1027.12 1027.48 1027.75 1027.95 1028.09 1028.18 1028.23 1028.26 1028.28 1028.29 1028.30 1028.31 1028.33 1028.35 1028.35 1028.32 1028.26 1028.14 1027.98 1027.76 1027.51 1027.24 1026.95 1026.66 1026.39 1026.14 1025.91 1025.72 1025.55 1025.40 1025.27 1025.15 1025.04 1024.95 1024.85 1024.75
1022.28 1023.21 1024.09 1024.90 1025.63 1026.26 1026.80 1027.25 1027.62 1027.92 1028.14 1028.31 1028.42 1028.49 1028.52 1028.52 1028.51 1028.50 1028.48 1028.47 1028.46 1028.44 1028.40 1028.32 1028.21 1028.05 1027.84 1027.59 1027.30 1027.00 1026.69 1026.38 1026.09 1025.81 1025.56 1025.34 1025.15 1024.98 1024.84 1024.73 1024.64 1024.56 1024.49
1023.30 1024.06 1024.77 1025.42 1026.01 1026.53 1026.99 1027.39 1027.75 1028.04 1028.29 1028.48 1028.61 1028.70 1028.73 1028.73 1028.70 1028.66 1028.62 1028.58 1028.53 1028.48 1028.42 1028.33 1028.21 1028.05 1027.84 1027.60 1027.32 1027.01 1026.69 1026.37 1026.05 1025.75 1025.46 1025.20 1024.97 1024.76 1024.60 1024.46 1024.35 1024.27 1024.20
1024.40 1024.99 1025.53 1026.02 1026.46 1026.86 1027.23 1027.57 1027.89 1028.17 1028.42 1028.62 1028.76 1028.86 1028.90 1028.89 1028.85 1028.79 1028.72 1028.65 1028.57 1028.48 1028.39 1028.28 1028.14 1027.97 1027.76 1027.52 1027.25 1026.95 1026.63 1026.31 1025.98 1025.66 1025.36 1025.07 1024.81 1024.57 1024.37 1024.20 1024.06 1023.94 1023.83
1025.50 1025.94 1026.33 1026.66 1026.96 1027.25 1027.52 1027.79 1028.06 1028.31 1028.54 1028.73 1028.88 1028.97 1029.01 1029.00 1028.95 1028.88 1028.78 1028.67 1028.55 1028.43 1028.30 1028.15 1027.99 1027.80 1027.58 1027.33 1027.06 1026.77 1026.46 1026.15 1025.83 1025.51 1025.20 1024.90 1024.61 1024.35 1024.11 1023.89 1023.70 1023.53 1023.37
1026.54 1026.85 1027.10 1027.31 1027.49 1027.67 1027.86 1028.05 1028.26 1028.47 1028.66 1028.83 1028.96 1029.04 1029.07 1029.05 1028.99 1028.89 1028.78 1028.64 1028.49 1028.33 1028.16 1027.97 1027.77 1027.55 1027.31 1027.05 1026.77 1026.48 1026.17 1025.86 1025.55 1025.24 1024.93 1024.62 1024.33 1024.04 1023.77 1023.51 1023.27 1023.03 1022.81
1027.47 1027.67 1027.82 1027.92 1028.02 1028.11 1028.22 1028.35 1028.49 1028.64 1028.78 1028.90 1029.00 1029.05 1029.06 1029.03 1028.96 1028.85 1028.72 1028.56 1028.38 1028.19 1027.98 1027.76 1027.51 1027.26 1026.98 1026.69 1026.39 1026.08 1025.77 1025.46 1025.16 1024.85 1024.54 1024.24 1023.94 1023.64 1023.34 1023.05 1022.75 1022.46 1022.18
1028.26 1028.38 1028.45 1028.49 1028.53 1028.56 1028.60 1028.66 1028.74 1028.82 1028.90 1028.96 1029.00 1029.02 1029.00 1028.95 1028.86 1028.74 1028.60 1028.43 1028.24 1028.03 1027.79 1027.53 1027.25 1026.95 1026.63 1026.31 1025.98 1025.64 1025.32 1024.99 1024.68 1024.37 1024.07 1023.77 1023.47 1023.16 1022.85 1022.53 1022.21 1021.88 1021.55
1028.93 1028.99 1029.02 1029.02 1029.01 1029.00 1029.00 1029.00 1029.01 1029.02 1029.02 1029.02 1028.99 1028.95 1028.89 1028.81 1028.70 1028.58 1028.43 1028.26 1028.07 1027.84 1027.59 1027.31 1026.99 1026.65 1026.30 1025.94 1025.57 1025.20 1024.85 1024.51 1024.18 1023.86 1023.56 1023.26 1022.96 1022.66 1022.34 1022.02 1021.68 1021.34 1020.99
1029.50 1029.52 1029.53 1029.51 1029.49 1029.46 1029.41 1029.37 1029.31 1029.24 1029.16 1029.07 1028.98 1028.87 1028.76 1028.64 1028.51 1028.37 1028.23 1028.06 1027.86 1027.64 1027.38 1027.08 1026.75 1026.38 1026.00 1025.60 1025.19 1024.80 1024.41 1024.05 1023.71 1023.38 1023.07 1022.78 1022.48 1022.19 1021.89 1021.58 1021.25 1020.92 1020.58
1030.00 1030.01 1030.00 1029.99 1029.96 1029.91 1029.84 1029.74 1029.62 1029.48 1029.32 1029.14 1028.96 1028.78 1028.61 1028.44 1028.29 1028.14 1027.98 1027.81 1027.62 1027.40 1027.14 1026.84 1026.50 1026.12 1025.71 1025.29 1024.86 1024.44 1024.04 1023.66 1023.30 1022.97 1022.66 1022.37 1022.09 1021.81 1021.54 1021.25 1020.96 1020.65 1020.34
1030.47 1030.47 1030.47 1030.45 1030.42 1030.35 1030.25 1030.11 1029.93 1029.72 1029.47 1029.22 1028.95 1028.70 1028.46 1028.25 1028.06 1027.88 1027.71 1027.54 1027.35 1027.13 1026.87 1026.57 1026.23 1025.84 1025.43 1025.00 1024.56 1024.13 1023.72 1023.33 1022.97 1022.64 1022.34 1022.06 1021.80 1021.55 1021.30 1021.05 1020.79 1020.53 1020.25
1030.94 1030.93 1030.92 1030.90 1030.85 1030.76 1030.63 1030.45 1030.21 1029.93 1029.62 1029.29 1028.95 1028.63 1028.33 1028.06 1027.83 1027.62 1027.43 1027.24 1027.04 1026.82 1026.56 1026.26 1025.91 1025.53 1025.12 1024.70 1024.27 1023.85 1023.45 1023.07 1022.72 1022.41 1022.12 1021.86 1021.62 1021.40 1021.18 1020.96 1020.74 1020.51 1020.27
1031.42 1031.38 1031.34 1031.30 1031.22 1031.11 1030.94 1030.71 1030.43 1030.09 1029.72 1029.33 1028.94 1028.56 1028.21 1027.90 1027.62 1027.37 1027.15 1026.93 1026.71 1026.47 1026.20 1025.89 1025.55 1025.18 1024.78 1024.38 1023.97 1023.57 1023.20 1022.85 1022.54 1022.25 1021.99 1021.75 1021.54 1021.33 1021.13 1020.93 1020.73 1020.52 1020.30
Thickness
5512 5511 5510 5510 5510 5510 5511 5514 5516 5518 5520 5522 5523 5525 5527 5528 5531 5534 5536 5539 5542 5545 5548 5551 5554 5557 5560 5563 5567 5570 5573 5576 5580 5583 5586 5591 5595 5599 5601 5604 5606 5608 5610
5499 5499 5498 5497 5496 5496 5496 5498 5500 5502 5504 5505 5507 5509 5511 5514 5517 5519 5521 5524 5527 5530 5534 5537 5540 5543 5547 5550 5553 5557 5559 5563 5567 5569 5572 5576 5582 5587 5592 5594 5596 5598 5600
5484 5484 5484 5483 5482 5482 5482 5484 5486 5487 5489 5491 5493 5495 5498 5500 5502 5505 5507 5510 5512 5515 5519 5523 5527 5530 5533 5536 5539 5543 5546 5549 5553 5557 5560 5563 5568 5572 5578 5583 5585 5588 5590
5471 5469 5469 5468 5468 5468 5469 5469 5471 5472 5474 5476 5478 5480 5482 5484 5486 5489 5492 5496 5498 5502 5505 5509 5512 5516 5519 5522 5526 5530 5532 5536 5540 5544 5549 5553 5557 5558 5563 5569 5573 5576 5579
5458 5456 5455 5454 5454 5454 5454 5455 5456 5457 5459 5460 5463 5465 5466 5469 5472 5475 5479 5482 5485 5488 5492 5495 5498 5501 5505 5508 5512 5516 5519 5522 5526 5530 5534 5539 5543 5548 5550 5554 5558 5562 5566
5445 5443 5441 5441 5440 5439 5440 5441 5441 5442 5444 5445 5447 5450 5452 5454 5458 5461 5464 5468 5472 5475 5478 5481 5485 5487 5490 5494 5498 5502 5506 5509 5513 5517 5520 5524 5529 5533 5536 5540 5544 5548 5553
5433 5430 5428 5426 5426 5425 5425 5426 5427 5428 5429 5431 5432 5435 5438 5440 5443 5446 5450 5453 5457 5461 5464 5468 5471 5474 5477 5480 5483 5487 5492 5496 5500 5503 5507 5511 5516 5521 5524 5527 5530 5535 5540
5421 5418 5415 5413 5411 5411 5411 5411 5412 5414 5415 5417 5419 5421 5424 5426 5429 5432 5435 5439 5443 5447 5450 5454 5457 5460 5464 5467 5470 5474 5478 5483 5487 5491 5495 5498 5503 5508 5512 5514 5516 5519 5525
5410 5406 5404 5401 5399 5397 5397 5397 5397 5400 5402 5403 5405 5408 5410 5413 5416 5419 5422 5426 5429 5433 5437 5440 5444 5447 5451 5454 5457 5460 5465 5469 5474 5478 5482 5485 5490 5494 5499 5503 5505 5507 5510
5398 5395 5391 5388 5386 5384 5383 5384 5384 5386 5388 5390 5392 5395 5397 5400 5403 5407 5410 5413 5416 5419 5423 5427 5431 5435 5438 5441 5444 5448 5452 5456 5461 5465 5469 5473 5477 5481 5486 5490 5494 5497 5500
5386 5383 5379 5376 5374 5372 5371 5371 5372 5373 5375 5377 5379 5381 5384 5387 5390 5394 5397 5400 5403 5407 5410 5414 5418 5422 5426 5429 5432 5435 5439 5443 5448 5453 5457 5461 5465 5469 5473 5477 5481 5485 5488
5375 5371 5368 5365 5362 5360 5359 5359 5359 5360 5361 5363 5366 5368 5372 5374 5377 5380 5383 5387 5391 5394 5398 5402 5406 5409 5413 5417 5421 5424 5428 5431 5436 5441 5445 5449 5452 5456 5461 5465 5469 5473 5477
5365 5360 5356 5353 5350 5348 5347 5347 5347 5348 5349 5351 5353 5356 5358 5361 5363 5366 5370 5374 5378 5382 5386 5390 5394 5397 5401 5405 5409 5413 5417 5421 5425 5429 5433 5437 5440 5445 5449 5453 5457 5461 5465
5353 5348 5344 5341 5338 5336 5335 5335 5335 5336 5337 5338 5340 5342 5345 5347 5350 5353 5357 5361 5366 5370 5375 5379 5383 5386 5390 5394 5398 5402 5406 5410 5414 5418 5422 5426 5429 5434 5438 5441 5445 5448 5451
5342 5337 5333 5329 5327 5325 5324 5324 5324 5324 5325 5326 5327 5329 5332 5334 5337 5341 5345 5349 5353 5358 5363 5368 5372 5376 5380 5385 5389 5393 5396 5400 5404 5408 5412 5416 5420 5424 5428 5432 5435 5437 5439
5330 5326 5322 5318 5316 5313 5313 5313 5312 5312 5313 5314 5315 5317 5320 5322 5325 5328 5333 5337 5342 5347 5352 5357 5362 5367 5372 5377 5381 5384 5387 5391 5395 5399 5402 5406 5409 5413 5417 5421 5425 5427 5430
5318 5313 5310 5306 5304 5302 5301 5301 5301 5301 5302 5302 5304 5306 5309 5311 5314 5317 5321 5325 5330 5335 5341 5346 5351 5357 5363 5368 5372 5375 5378 5382 5386 5389 5393 5397 5401 5403 5406 5409 5413 5416 5420
5305 5301 5298 5296 5294 5293 5291 5291 5291 5291 5291 5293 5294 5296 5298 5300 5303 5306 5310 5314 5319 5323 5329 5335 5340 5345 5352 5357 5362 5365 5367 5372 5376 5380 5384 5388 5391 5393 5396 5398 5402 5405 5409
5294 5290 5287 5285 5284 5283 5282 5281 5281 5282 5282 5283 5284 5286 5288 5291 5293 5296 5300 5303 5308 5313 5318 5323 5328 5333 5340 5346 5350 5354 5357 5362 5367 5371 5375 5379 5383 5386 5388 5389 5392 5395 5398
5284 5281 5278 5276 5274 5274 5273 5271 5271 5272 5272 5274 5275 5277 5279 5281 5284 5287 5290 5294 5298 5303 5307 5313 5317 5322 5328 5334 5340 5344 5349 5353 5358 5363 5367 5371 5374 5377 5379 5380 5382 5385 5388
5275 5272 5269 5266 5264 5264 5263 5261 5261 5262 5264 5265 5267 5269 5271 5273 5276 5279 5282 5285 5289 5293 5297 5303 5308 5313 5318 5324 5330 5334 5339 5344 5349 5353 5357 5361 5364 5367 5369 5371 5374 5377 5378
5266 5263 5259 5257 5255 5254 5253 5252 5252 5254 5255 5256 5258 5261 5263 5265 5268 5270 5274 5276 5279 5283 5288 5293 5299 5303 5308 5313 5319 5325 5330 5335 5339 5343 5346 5350 5354 5357 5359 5361 5363 5365 5367
5256 5254 5251 5249 5247 5246 5244 5242 5243 5245 5247 5248 5250 5252 5255 5257 5259 5262 5265 5268 5271 5274 5278 5283 5289 5294 5299 5303 5309 5315 5320 5325 5329 5333 5337 5340 5343 5346 5347 5349 5352 5354 5356
5248 5245 5243 5241 5239 5237 5235 5234 5235 5237 5237 5239 5241 5243 5246 5249 5251 5253 5256 5259 5262 5265 5269 5274 5279 5284 5289 5294 5299 5304 5309 5314 5318 5322 5326 5329 5332 5334 5336 5339 5340 5343 5346
5238 5235 5232 5230 5229 5228 5227 5227 5227 5228 5229 5230 5232 5235 5237 5239 5242 5245 5247 5250 5254 5256 5261 5265 5269 5275 5280 5285 5290 5294 5299 5304 5308 5313 5316 5319 5320 5322 5324 5327 5329 5331 5333
5229 5226 5224 5222 5220 5219 5219 5219 5219 5219 5220 5222 5224 5226 5229 5231 5233 5236 5239 5243 5246 5250 5254 5258 5262 5267 5272 5277 5282 5286 5291 5296 5300 5304 5307 5308 5310 5311 5313 5315 5317 5319 5321